Change the Weather History Date:

Sunday, December 14, 2014

  Actual Average Record
Temperature  
Mean Temperature 36 °F 28 °F  
Max Temperature 40 °F 38 °F 57 °F (1948)
Min Temperature 31 °F 19 °F -15 °F (1919)
Degree Days  
Heating Degree Days 29 37  
Month to date heating degree days 368 489  
Since 1 July heating degree days 1592 1717  
Cooling Degree Days 0 0  
Month to date cooling degree days 0 0  
Year to date cooling degree days 1046 1125  
Moisture  
Dew Point 32 °F    
Average Humidity 82    
Maximum Humidity 100    
Minimum Humidity 64    
Precipitation  
Precipitation 0.03 in 0.01 in 0.62 in (1928)
Month to date precipitation 0.39 0.27  
Year to date precipitation 11.29 9.10  
Snow  
Snow T in 0.10 in 7.40 in (1928)
Month to date snowfall T 1.8  
Since 1 July snowfall T 4.3  
Snow Depth 0.00 in    
Sea Level Pressure  
Sea Level Pressure 29.94 in    
Wind  
Wind Speed 8 mph (NNW)    
Max Wind Speed 14 mph    
Max Gust Speed 17 mph    
Visibility 7 miles    
Events Rain    
T = Trace of Precipitation, MM = Missing Value Source: NWS Daily Summary

Daily Weather History Graph

Daily Weather History Graph

Search for Another Location

Airport or City:

Trip Planner

Search our weather history database for the weather conditions in past years. The results will help you decide how hot, cold, wet, or windy it might be!

Date:

Astronomy

Dec. 14, 2014 Rise Set
Actual Time 7:25 AM MST 4:52 PM MST
Civil Twilight 6:55 AM MST 5:22 PM MST
Nautical Twilight 6:21 AM MST 5:55 PM MST
Astronomical Twilight 5:49 AM MST 6:28 PM MST
Moon No Moon Rise 12:21 PM MST (12/14)
Length of Visible Light 10h 26m
Length of Day
9h 26m
Waning Gibbous, 48% of the Moon is Illuminated
Dec 14
Waning Gibbous
Dec 21
New
Dec 28
First Quarter
Jan 4
Full
Jan 13
Last Quarter

Hourly Weather History & Observations

Time (MST) Temp. Windchill Dew Point Humidity Pressure Visibility Wind Dir Wind Speed Gust Speed Precip Events Conditions
12:01 AM 33.1 °F 30.0 °F 33.1 °F 100% 29.88 in 3.0 mi NE 3.5 mph - N/A   Overcast
12:05 AM 33.1 °F 30.0 °F 33.1 °F 100% 29.88 in 1.5 mi NE 3.5 mph - N/A   Overcast
12:09 AM 33.1 °F 30.0 °F 33.1 °F 100% 29.87 in 0.8 mi NE 3.5 mph - N/A   Overcast
12:35 AM 33.1 °F 30.0 °F 33.1 °F 100% 29.87 in 1.0 mi NE 3.5 mph - N/A   Overcast
12:42 AM 33.1 °F 30.0 °F 33.1 °F 100% 29.87 in 3.0 mi NE 3.5 mph - N/A   Overcast
12:53 AM 33.1 °F - 33.1 °F 100% 29.87 in 5.0 mi Calm Calm - N/A   Overcast
1:53 AM 34.0 °F - 34.0 °F 100% 29.88 in 4.0 mi Calm Calm - N/A   Overcast
2:19 AM 34.0 °F - 34.0 °F 100% 29.87 in 1.8 mi Calm Calm - 0.00 in Rain Light Rain
2:32 AM 33.1 °F - 33.1 °F 100% 29.87 in 1.8 mi Calm Calm - 0.00 in Rain Light Rain
2:45 AM 33.1 °F 30.0 °F 33.1 °F 100% 29.87 in 2.5 mi WNW 3.5 mph - 0.00 in Rain Light Rain
2:53 AM 33.1 °F 28.7 °F 33.1 °F 100% 29.89 in 2.5 mi WNW 4.6 mph - 0.00 in Rain Light Rain
3:32 AM 32.0 °F - 32.0 °F 100% 29.87 in 3.0 mi Calm Calm - 0.02 in   Overcast
3:53 AM 32.0 °F - 32.0 °F 100% 29.90 in 4.0 mi Calm Calm - 0.03 in   Overcast
4:04 AM 32.0 °F - 32.0 °F 100% 29.87 in 4.0 mi Calm Calm - 0.00 in   Overcast
4:13 AM 32.0 °F - 32.0 °F 100% 29.87 in 4.0 mi Calm Calm - 0.00 in   Overcast
4:24 AM 32.0 °F 28.7 °F 32.0 °F 100% 29.88 in 3.0 mi WNW 3.5 mph - 0.00 in   Overcast
4:44 AM 33.1 °F 26.9 °F 32.0 °F 96% 29.87 in 10.0 mi North 6.9 mph - 0.00 in   Overcast
4:53 AM 33.1 °F 26.9 °F 32.0 °F 96% 29.90 in 10.0 mi NNW 6.9 mph - 0.00 in   Overcast
5:07 AM 33.1 °F 25.5 °F 33.1 °F 100% 29.88 in 10.0 mi NNW 9.2 mph - N/A   Overcast
5:40 AM 33.1 °F 24.4 °F 32.0 °F 96% 29.88 in 10.0 mi North 11.5 mph - N/A   Overcast
5:53 AM 33.1 °F 24.9 °F 32.0 °F 96% 29.91 in 10.0 mi NNW 10.4 mph - N/A   Overcast
6:00 AM 33.1 °F 24.9 °F 33.1 °F 100% 29.89 in 10.0 mi North 10.4 mph - N/A   Overcast
6:53 AM 33.1 °F 24.4 °F 32.0 °F 96% 29.92 in 10.0 mi North 11.5 mph - N/A   Overcast
7:03 AM 33.1 °F 24.9 °F 32.0 °F 96% 29.90 in 10.0 mi North 10.4 mph - N/A   Overcast
7:53 AM 33.1 °F 24.9 °F 32.0 °F 96% 29.93 in 10.0 mi North 10.4 mph - N/A   Mostly Cloudy
8:53 AM 34.0 °F 26.0 °F 32.0 °F 92% 29.95 in 10.0 mi North 10.4 mph - N/A   Overcast
9:53 AM 36.0 °F 28.5 °F 33.1 °F 89% 29.97 in 10.0 mi NNW 10.4 mph - N/A   Overcast
10:53 AM 37.0 °F 29.8 °F 33.1 °F 86% 29.97 in 10.0 mi NNW 10.4 mph - N/A   Mostly Cloudy
11:53 AM 37.9 °F 30.5 °F 32.0 °F 79% 29.96 in 10.0 mi NW 11.5 mph - N/A   Overcast
12:53 PM 39.0 °F 31.8 °F 28.0 °F 65% 29.95 in 10.0 mi NW 11.5 mph - N/A   Overcast
1:53 PM 37.9 °F 30.5 °F 30.0 °F 73% 29.95 in 10.0 mi NNW 11.5 mph - N/A   Overcast
2:53 PM 39.0 °F 32.3 °F 28.0 °F 65% 29.97 in 10.0 mi WNW 10.4 mph - N/A   Overcast
3:53 PM 37.0 °F 28.9 °F 30.0 °F 76% 29.99 in 10.0 mi NNW 12.7 mph - 0.00 in Rain Light Rain
4:53 PM 37.0 °F 31.0 °F 30.0 °F 76% 30.00 in 10.0 mi North 8.1 mph - 0.00 in   Overcast
5:53 PM 35.1 °F 28.6 °F 30.0 °F 82% 30.02 in 10.0 mi North 8.1 mph - N/A   Mostly Cloudy
6:53 PM 35.1 °F 28.6 °F 28.9 °F 78% 30.04 in 10.0 mi NNE 8.1 mph - N/A   Overcast
7:53 PM 33.1 °F 28.7 °F 28.9 °F 85% 30.06 in 10.0 mi West 4.6 mph - N/A   Overcast
8:53 PM 33.1 °F - 30.0 °F 89% 30.06 in 10.0 mi Calm Calm - N/A   Overcast
9:53 PM 30.9 °F 26.2 °F 28.9 °F 92% 30.08 in 10.0 mi WNW 4.6 mph - N/A   Overcast
10:53 PM 32.0 °F 26.4 °F 28.9 °F 88% 30.09 in 10.0 mi NW 5.8 mph - N/A   Overcast
11:53 PM 33.1 °F 25.5 °F 28.9 °F 85% 30.09 in 10.0 mi North 9.2 mph - N/A   Overcast